map of LYVR home
LYVR - Airport
Location
City:  Vrsac, Serbia
ICAO:LYVR

Details
Type:Airport (Aerodrome, Airfield)
Use:Public/Civil, Military
Latitude:4508'49"N (45.146889)
Longitude:2118'36"E (21.309889)
Datum:WGS 1984
Elevation:276 ft (84 m)
Variation:5.15E (WMM2015v2 magnetic declination)
0.13 annual change
Runways:3
Longest:3280 × 72 ft (1000 × 22 m), paved

Time
Time Zone:UTC+1 (DST+2)
Local Time:

Weather
METAR:LYVR 041400Z 34006KT 310V110 9999 BKN016 06/01 Q1027 NOSIG
TAF:LYVR 041100Z 0412/0512 30008KT 9999 SCT015 BKN030 TX05/0413Z TN02/0506Z
TEMPO 0412/0415 BKN015
TEMPO 0421/0512 2000 -RA BR BKN006

Related Locations
Nearby:
Farthest:CHT: 11559 mi / 18602 km
Waitangi [Tuuta], CIT, NZ

Find:

   beyond  
but within

Other Information
Maps:
NOTAMs:
Links:
Sources:

  
  • flag of Serbia
  

Sectional Chart

Flight Planning
at skyvector.com

Satellite Image

Google Maps Satellite view

 

Copyright © 2004-2019 Karl L. Swartz. All rights reserved.
The Great Circle Mapper name and logo are trademarks of the Great Circle Mapper.
All other trademarks mentioned herein belong to their respective owners.
Please see credits for attibutions and further copyright information.

  Follow gcmap on Facebook Follow gcmap on Twitter GCmap on LinkedIn

hCard Microformat

Geo Microformat